,,PA_Meas_PMT16A,,PR_Meas_QMR101_102,,RH_Meas_QMH101,,SR_Meas_QMS101,,TA_Meas_QMH101,,GenWind,,GenWind,
time,status,PA,status,PR,status,RH,status,SR,status,TA,status,DirAvg,status,SpdAvg,
2012-01-03, 00:00:04,VALID,918.387,VALID,0,VALID,92.5864,VALID,0,VALID,18.7279,VALID,160,VALID,0.923437,
2012-01-03, 00:01:04,VALID,918.381,VALID,0,VALID,92.533,VALID,0,VALID,18.6889,VALID,155,VALID,1.10898,
2012-01-03, 00:02:04,VALID,918.374,VALID,0,VALID,92.7236,VALID,0,VALID,18.7098,VALID,162,VALID,1.76758,
2012-01-03, 00:03:04,VALID,918.354,VALID,0,VALID,92.6779,VALID,0,VALID,18.6694,VALID,167,VALID,1.38164,
2012-01-03, 00:04:04,VALID,918.332,VALID,0,VALID,92.7312,VALID,0,VALID,18.6499,VALID,141,VALID,0.739453,
2012-01-03, 00:05:04,VALID,918.337,VALID,0,VALID,92.8227,VALID,0,VALID,18.6708,VALID,131,VALID,0.946094,
2012-01-03, 00:06:04,VALID,918.338,VALID,0,VALID,92.5788,VALID,0,VALID,18.6109,VALID,132,VALID,0.902344,
2012-01-03, 00:07:04,VALID,918.332,VALID,0,VALID,92.7007,VALID,0.107441,VALID,18.6304,VALID,133,VALID,0.876172,
2012-01-03, 00:08:04,VALID,918.325,VALID,0,VALID,92.6321,VALID,0,VALID,18.6095,VALID,154,VALID,0.967188,
2012-01-03, 00:09:04,VALID,918.334,VALID,0,VALID,92.6093,VALID,0.107441,VALID,18.6095,VALID,141,VALID,0.717578,
2012-01-03, 00:10:04,VALID,918.319,VALID,0,VALID,92.4568,VALID,0.107441,VALID,18.6694,VALID,157,VALID,1.05586,
2012-01-03, 00:11:04,VALID,918.318,VALID,0,VALID,92.4644,VALID,0.107441,VALID,18.6694,VALID,155,VALID,0.700781,
2012-01-03, 00:12:04,VALID,918.35,VALID,0,VALID,92.4187,VALID,0.107441,VALID,18.6889,VALID,157,VALID,0.970703,
2012-01-03, 00:13:04,VALID,918.331,VALID,0,VALID,92.2281,VALID,0,VALID,18.668,VALID,144,VALID,0.858203,
2012-01-03, 00:14:04,VALID,918.28,VALID,0,VALID,92.3806,VALID,0,VALID,18.6875,VALID,147,VALID,1.21172,
2012-01-03, 00:15:04,VALID,918.279,VALID,0,VALID,92.3348,VALID,0,VALID,18.6889,VALID,159,VALID,0.569922,
2012-01-03, 00:16:04,VALID,918.245,VALID,0,VALID,92.4187,VALID,0,VALID,18.6875,VALID,159,VALID,1.41055,
2012-01-03, 00:17:04,VALID,918.25,VALID,0,VALID,92.251,VALID,0.107441,VALID,18.707,VALID,138,VALID,0.913672,
2012-01-03, 00:18:04,VALID,918.254,VALID,0,VALID,92.129,VALID,0,VALID,18.707,VALID,142,VALID,0.539453,
2012-01-03, 00:19:04,VALID,918.209,VALID,0,VALID,92.0146,VALID,0,VALID,18.6875,VALID,142,VALID,0.459766,
2012-01-03, 00:20:04,VALID,918.194,VALID,0,VALID,91.946,VALID,0,VALID,18.6889,VALID,142,VALID,0.514844,
2012-01-03, 00:21:04,VALID,918.203,VALID,0,VALID,92.0375,VALID,0.107441,VALID,18.6694,VALID,153,VALID,0.887109,
2012-01-03, 00:22:04,VALID,918.196,VALID,0,VALID,92.1671,VALID,0,VALID,18.6499,VALID,148,VALID,1.04453,
2012-01-03, 00:23:04,VALID,918.18,VALID,0,VALID,92.2128,VALID,0,VALID,18.6304,VALID,148,VALID,0.914453,
2012-01-03, 00:24:04,VALID,918.17,VALID,0,VALID,92.4415,VALID,0,VALID,18.6109,VALID,139,VALID,0.938672,
2012-01-03, 00:25:04,VALID,918.169,VALID,0,VALID,92.3119,VALID,0,VALID,18.59,VALID,145,VALID,0.593359,
2012-01-03, 00:26:04,VALID,918.186,VALID,0,VALID,92.3501,VALID,0,VALID,18.6109,VALID,145,VALID,0.759766,
2012-01-03, 00:27:04,VALID,918.161,VALID,0,VALID,92.5178,VALID,0,VALID,18.6109,VALID,145,VALID,1.09375,
2012-01-03, 00:28:04,VALID,918.133,VALID,0,VALID,92.4034,VALID,0,VALID,18.5705,VALID,145,VALID,0.835547,
2012-01-03, 00:29:04,VALID,918.152,VALID,0,VALID,92.5559,VALID,0.107441,VALID,18.572,VALID,145,VALID,0.829297,
2012-01-03, 00:30:04,VALID,918.141,VALID,0,VALID,92.6855,VALID,0.107441,VALID,18.572,VALID,144,VALID,0.854688,
2012-01-03, 00:31:04,VALID,918.161,VALID,0,VALID,92.6474,VALID,0.107441,VALID,18.5525,VALID,139,VALID,0.567969,
2012-01-03, 00:32:04,VALID,918.124,VALID,0,VALID,92.6779,VALID,0.107441,VALID,18.5525,VALID,139,VALID,0.322656,
2012-01-03, 00:33:04,VALID,918.096,VALID,0,VALID,92.6702,VALID,0,VALID,18.5525,VALID,143,VALID,0.596094,
2012-01-03, 00:34:04,VALID,918.112,VALID,0,VALID,92.5711,VALID,0,VALID,18.5914,VALID,159,VALID,0.651953,
2012-01-03, 00:35:04,VALID,918.115,VALID,0,VALID,92.5711,VALID,0,VALID,18.5914,VALID,154,VALID,0.460547,
2012-01-03, 00:36:04,VALID,918.09,VALID,0,VALID,92.3729,VALID,0.107441,VALID,18.5511,VALID,142,VALID,0.130078,
2012-01-03, 00:37:04,VALID,918.052,VALID,0,VALID,92.533,VALID,0,VALID,18.5121,VALID,142,VALID,0.886328,
2012-01-03, 00:38:04,VALID,918.057,VALID,0,VALID,92.6931,VALID,0,VALID,18.494,VALID,147,VALID,0.663281,
2012-01-03, 00:39:04,VALID,918.042,VALID,0,VALID,92.8761,VALID,0,VALID,18.4355,VALID,147,VALID,0.653906,
2012-01-03, 00:40:04,VALID,918.05,VALID,0,VALID,92.7846,VALID,0,VALID,18.3561,VALID,147,VALID,0.543359,
2012-01-03, 00:41:04,VALID,918.023,VALID,0,VALID,92.8761,VALID,0,VALID,18.3185,VALID,147,VALID,0.726172,
2012-01-03, 00:42:04,VALID,917.992,VALID,0,VALID,93.1581,VALID,0,VALID,18.2601,VALID,147,VALID,1.00117,
2012-01-03, 00:43:04,VALID,917.962,VALID,0,VALID,93.4783,VALID,0,VALID,18.2197,VALID,147,VALID,0.712109,
2012-01-03, 00:44:04,VALID,917.977,VALID,0,VALID,93.9434,VALID,0,VALID,18.2197,VALID,147,VALID,0.530078,
2012-01-03, 00:45:04,VALID,917.955,VALID,0,VALID,94.1492,VALID,0,VALID,18.2392,VALID,147,VALID,0.805078,
2012-01-03, 00:46:04,VALID,917.931,VALID,0,VALID,94.1644,VALID,0.107441,VALID,18.2587,VALID,147,VALID,0.826172,
2012-01-03, 00:47:04,VALID,917.946,VALID,0,VALID,93.9815,VALID,0,VALID,18.2796,VALID,147,VALID,0.801953,
2012-01-03, 00:48:04,VALID,917.914,VALID,0,VALID,94.1492,VALID,0,VALID,18.299,VALID,147,VALID,0.774219,
2012-01-03, 00:49:04,VALID,917.908,VALID,0,VALID,94.1416,VALID,0.107441,VALID,18.2782,VALID,147,VALID,0.946094,
2012-01-03, 00:50:05,VALID,917.863,VALID,0,VALID,93.9281,VALID,0.107441,VALID,18.2977,VALID,147,VALID,1.11406,
2012-01-03, 00:51:04,VALID,917.856,VALID,0,VALID,93.5546,VALID,0,VALID,18.2782,VALID,147,VALID,1.06172,
2012-01-03, 00:52:05,VALID,917.833,VALID,0,VALID,93.8595,VALID,0.107441,VALID,18.2796,VALID,147,VALID,1.14063,
2012-01-03, 00:53:05,VALID,917.816,VALID,0,VALID,93.8976,VALID,0,VALID,18.3185,VALID,147,VALID,1.13047,
2012-01-03, 00:54:05,VALID,917.807,VALID,0,VALID,93.6918,VALID,0,VALID,18.299,VALID,147,VALID,1.13164,
2012-01-03, 00:55:05,VALID,917.803,VALID,0,VALID,93.7147,VALID,0,VALID,18.2601,VALID,147,VALID,1.21133,
2012-01-03, 00:56:05,VALID,917.759,VALID,0,VALID,93.8366,VALID,0,VALID,18.2392,VALID,147,VALID,1.2457,
2012-01-03, 00:57:05,VALID,917.781,VALID,0,VALID,93.6613,VALID,0,VALID,18.2796,VALID,147,VALID,1.26953,
2012-01-03, 00:58:05,VALID,917.744,VALID,0,VALID,93.6155,VALID,0.107441,VALID,18.3185,VALID,147,VALID,1.24727,
2012-01-03, 00:59:05,VALID,917.716,VALID,0,VALID,93.3564,VALID,0,VALID,18.377,VALID,147,VALID,1.27461,
2012-01-03, 01:00:05,VALID,917.719,VALID,0,VALID,92.9523,VALID,0,VALID,18.377,VALID,147,VALID,0.892578,
2012-01-03, 01:01:05,VALID,917.69,VALID,0,VALID,92.8456,VALID,0,VALID,18.377,VALID,147,VALID,1.01406,
2012-01-03, 01:02:05,VALID,917.686,VALID,0,VALID,92.7541,VALID,0,VALID,18.3366,VALID,147,VALID,0.966406,
2012-01-03, 01:03:05,VALID,917.689,VALID,0,VALID,92.9371,VALID,0.107441,VALID,18.3575,VALID,147,VALID,0.991016,
2012-01-03, 01:04:05,VALID,917.646,VALID,0,VALID,92.9294,VALID,0,VALID,18.377,VALID,147,VALID,1.20664,
2012-01-03, 01:05:05,VALID,917.626,VALID,0,VALID,92.7084,VALID,0,VALID,18.377,VALID,147,VALID,0.957422,
2012-01-03, 01:06:05,VALID,917.617,VALID,0,VALID,92.6702,VALID,0,VALID,18.377,VALID,147,VALID,1.07773,
2012-01-03, 01:07:05,VALID,917.611,VALID,0,VALID,92.5483,VALID,0,VALID,18.3366,VALID,147,VALID,0.805078,
2012-01-03, 01:08:05,VALID,917.583,VALID,0,VALID,92.6016,VALID,0,VALID,18.3185,VALID,147,VALID,1.03125,
2012-01-03, 01:09:05,VALID,917.571,VALID,0,VALID,92.7465,VALID,0,VALID,18.299,VALID,147,VALID,1.09687,
2012-01-03, 01:10:05,VALID,917.548,VALID,0,VALID,92.6321,VALID,0,VALID,18.2587,VALID,147,VALID,1.02461,
2012-01-03, 01:11:05,VALID,917.542,VALID,0,VALID,92.7846,VALID,0.107441,VALID,18.2601,VALID,147,VALID,1.00273,
2012-01-03, 01:12:05,VALID,917.553,VALID,0,VALID,92.7617,VALID,0.107441,VALID,18.2601,VALID,147,VALID,1.16484,
2012-01-03, 01:13:05,VALID,917.551,VALID,0,VALID,92.472,VALID,0,VALID,18.2796,VALID,147,VALID,0.717188,
2012-01-03, 01:14:05,VALID,917.522,VALID,0,VALID,92.5406,VALID,0,VALID,18.2406,VALID,147,VALID,0.972266,
2012-01-03, 01:15:05,VALID,917.544,VALID,0,VALID,92.5788,VALID,0,VALID,18.2197,VALID,147,VALID,1.01211,
2012-01-03, 01:16:05,VALID,917.571,VALID,0,VALID,92.6321,VALID,0,VALID,18.2016,VALID,147,VALID,1.10117,
2012-01-03, 01:17:05,VALID,917.554,VALID,0,VALID,92.5483,VALID,0,VALID,18.1612,VALID,147,VALID,1.17695,
2012-01-03, 01:18:05,VALID,917.601,VALID,0,VALID,92.5406,VALID,0,VALID,18.1222,VALID,147,VALID,1.05703,
2012-01-03, 01:19:05,VALID,917.603,VALID,0,VALID,92.716,VALID,0.107441,VALID,18.0638,VALID,147,VALID,1.17031,
2012-01-03, 01:20:05,VALID,917.546,VALID,0,VALID,92.8837,VALID,0,VALID,18.0262,VALID,147,VALID,1.19492,
2012-01-03, 01:21:05,VALID,917.574,VALID,0,VALID,93.1505,VALID,0,VALID,18.0067,VALID,147,VALID,1.00664,
2012-01-03, 01:22:05,VALID,917.571,VALID,0,VALID,93.2039,VALID,0,VALID,17.9482,VALID,147,VALID,0.934766,
2012-01-03, 01:23:05,VALID,917.556,VALID,0,VALID,93.2877,VALID,0,VALID,17.9301,VALID,147,VALID,0.704687,
2012-01-03, 01:24:05,VALID,917.523,VALID,0,VALID,93.707,VALID,0,VALID,17.9106,VALID,147,VALID,0.892578,
2012-01-03, 01:25:05,VALID,917.519,VALID,0,VALID,93.8443,VALID,0,VALID,17.8716,VALID,147,VALID,0.760938,
2012-01-03, 01:26:05,VALID,917.494,VALID,0,VALID,93.7909,VALID,0,VALID,17.8326,VALID,147,VALID,0.752344,
2012-01-03, 01:27:05,VALID,917.491,VALID,0,VALID,93.9052,VALID,0,VALID,17.7338,VALID,147,VALID,0.851563,
2012-01-03, 01:28:05,VALID,917.471,VALID,0,VALID,93.9281,VALID,0,VALID,17.6948,VALID,147,VALID,0.666016,
2012-01-03, 01:29:05,VALID,917.485,VALID,0,VALID,94.0043,VALID,0,VALID,17.6572,VALID,147,VALID,0.802734,
2012-01-03, 01:30:05,VALID,917.441,VALID,0,VALID,94.2254,VALID,0,VALID,17.5974,VALID,147,VALID,0.906641,
2012-01-03, 01:31:05,VALID,917.469,VALID,0,VALID,94.4084,VALID,0,VALID,17.5598,VALID,147,VALID,0.969141,
2012-01-03, 01:32:05,VALID,917.432,VALID,0,VALID,94.5685,VALID,0,VALID,17.5208,VALID,147,VALID,0.962109,
2012-01-03, 01:33:05,VALID,917.441,VALID,0,VALID,94.7057,VALID,0,VALID,17.4805,VALID,147,VALID,0.874219,
2012-01-03, 01:34:05,VALID,917.434,VALID,0,VALID,94.8277,VALID,0,VALID,17.4818,VALID,147,VALID,0.908984,
2012-01-03, 01:35:05,VALID,917.401,VALID,0,VALID,95.0106,VALID,0,VALID,17.4623,VALID,147,VALID,0.856641,
2012-01-03, 01:36:05,VALID,917.393,VALID,0,VALID,95.2546,VALID,0,VALID,17.4818,VALID,147,VALID,0.803516,
2012-01-03, 01:37:05,VALID,917.376,VALID,0,VALID,95.3994,VALID,0,VALID,17.5598,VALID,147,VALID,1.00664,
2012-01-03, 01:38:05,VALID,917.354,VALID,0,VALID,95.5748,VALID,0,VALID,17.6364,VALID,147,VALID,1.07266,
2012-01-03, 01:39:05,VALID,917.326,VALID,0,VALID,95.5138,VALID,0,VALID,17.7352,VALID,147,VALID,0.896094,
2012-01-03, 01:40:05,VALID,917.31,VALID,0,VALID,95.4604,VALID,0,VALID,17.8131,VALID,147,VALID,1.10703,
2012-01-03, 01:41:05,VALID,917.286,VALID,0,VALID,95.3384,VALID,0,VALID,17.8911,VALID,147,VALID,1.2,
2012-01-03, 01:42:05,VALID,917.254,VALID,0,VALID,95.1707,VALID,0,VALID,18.008,VALID,147,VALID,1.24023,
2012-01-03, 01:43:05,VALID,917.251,VALID,0,VALID,94.8048,VALID,0,VALID,18.1055,VALID,147,VALID,1.34219,
2012-01-03, 01:44:05,VALID,917.228,VALID,0,VALID,94.3703,VALID,0,VALID,18.164,VALID,147,VALID,1.31016,
2012-01-03, 01:45:05,VALID,917.234,VALID,0,VALID,93.8976,VALID,0,VALID,18.2016,VALID,147,VALID,1.17188,
2012-01-03, 01:46:05,VALID,917.232,VALID,0,VALID,93.6079,VALID,0,VALID,18.2016,VALID,147,VALID,1.31094,
2012-01-03, 01:47:05,VALID,917.23,VALID,0,VALID,93.1353,VALID,0,VALID,18.203,VALID,147,VALID,1.15703,
2012-01-03, 01:48:05,VALID,917.212,VALID,0,VALID,92.7922,VALID,0,VALID,18.164,VALID,147,VALID,1.09492,
2012-01-03, 01:49:05,VALID,917.216,VALID,0,VALID,92.7236,VALID,0,VALID,18.086,VALID,147,VALID,0.984766,
2012-01-03, 01:50:05,VALID,917.193,VALID,0,VALID,92.6016,VALID,0,VALID,18.047,VALID,147,VALID,0.989844,
2012-01-03, 01:51:05,VALID,917.189,VALID,0,VALID,92.8761,VALID,0,VALID,17.9886,VALID,148,VALID,1.14609,
2012-01-03, 01:52:05,VALID,917.191,VALID,0,VALID,93.3335,VALID,0,VALID,18.0067,VALID,148,VALID,0.951563,
2012-01-03, 01:53:05,VALID,917.181,VALID,0,VALID,93.3411,VALID,0,VALID,17.9872,VALID,148,VALID,1.21914,
2012-01-03, 01:54:05,VALID,917.175,VALID,0,VALID,93.4631,VALID,0,VALID,17.9886,VALID,148,VALID,1.37773,
2012-01-03, 01:55:05,VALID,917.19,VALID,0,VALID,93.6689,VALID,0,VALID,18.0067,VALID,148,VALID,1.20664,
2012-01-03, 01:56:05,VALID,917.152,VALID,0,VALID,93.7528,VALID,0,VALID,18.0067,VALID,148,VALID,1.10039,
2012-01-03, 01:57:05,VALID,917.158,VALID,0,VALID,93.7451,VALID,0,VALID,18.0067,VALID,148,VALID,1.03945,
2012-01-03, 01:58:05,VALID,917.143,VALID,0,VALID,93.8519,VALID,0,VALID,18.0262,VALID,148,VALID,1.05156,
2012-01-03, 01:59:05,VALID,917.141,VALID,0,VALID,93.951,VALID,0.107441,VALID,18.0651,VALID,148,VALID,1.09687,
2012-01-03, 02:00:05,VALID,917.146,VALID,0,VALID,93.9052,VALID,0,VALID,18.1055,VALID,148,VALID,1.09063,
2012-01-03, 02:01:05,VALID,917.121,VALID,0,VALID,93.8747,VALID,0,VALID,18.086,VALID,148,VALID,1.03984,
2012-01-03, 02:02:05,VALID,917.149,VALID,0,VALID,93.8824,VALID,0,VALID,18.0651,VALID,148,VALID,0.873828,
2012-01-03, 02:03:05,VALID,917.154,VALID,0,VALID,93.9662,VALID,0,VALID,18.0651,VALID,148,VALID,1.0625,
2012-01-03, 02:04:05,VALID,917.118,VALID,0,VALID,94.0348,VALID,0,VALID,18.1055,VALID,148,VALID,0.972266,
2012-01-03, 02:05:05,VALID,917.126,VALID,0,VALID,93.9586,VALID,0,VALID,18.0651,VALID,148,VALID,0.758594,
2012-01-03, 02:06:05,VALID,917.1,VALID,0,VALID,93.9129,VALID,0,VALID,18.0457,VALID,148,VALID,1.1625,
2012-01-03, 02:07:05,VALID,917.108,VALID,0,VALID,93.8366,VALID,0,VALID,18.047,VALID,148,VALID,0.946484,
2012-01-03, 02:08:05,VALID,917.094,VALID,0,VALID,93.8595,VALID,0,VALID,18.0067,VALID,148,VALID,1.09805,
2012-01-03, 02:09:05,VALID,917.072,VALID,0,VALID,93.8214,VALID,0,VALID,17.9872,VALID,148,VALID,1.16836,
2012-01-03, 02:10:05,VALID,917.069,VALID,0,VALID,94.012,VALID,0,VALID,17.9482,VALID,148,VALID,1.09141,
2012-01-03, 02:11:05,VALID,917.068,VALID,0,VALID,94.0653,VALID,0,VALID,17.9287,VALID,148,VALID,0.603125,
2012-01-03, 02:12:05,VALID,917.078,VALID,0,VALID,94.1187,VALID,0,VALID,17.9092,VALID,148,VALID,0.686328,
2012-01-03, 02:13:05,VALID,917.05,VALID,0,VALID,94.1721,VALID,0,VALID,17.8702,VALID,148,VALID,0.699219,
2012-01-03, 02:14:05,VALID,917.048,VALID,0,VALID,94.4008,VALID,0,VALID,17.8508,VALID,148,VALID,0.928906,
2012-01-03, 02:15:05,VALID,917.061,VALID,0,VALID,94.6295,VALID,0,VALID,17.8508,VALID,148,VALID,1.16992,
2012-01-03, 02:16:05,VALID,917.024,VALID,0,VALID,94.881,VALID,0,VALID,17.8911,VALID,148,VALID,1.0875,
2012-01-03, 02:17:05,VALID,917.021,VALID,0,VALID,95.003,VALID,0,VALID,17.8897,VALID,148,VALID,1.16953,
2012-01-03, 02:18:05,VALID,917.003,VALID,0,VALID,95.1631,VALID,0.107441,VALID,17.9092,VALID,148,VALID,1.37109,
2012-01-03, 02:19:05,VALID,917,VALID,0,VALID,95.3003,VALID,0,VALID,17.9677,VALID,148,VALID,1.31719,
2012-01-03, 02:20:05,VALID,916.995,VALID,0,VALID,95.2088,VALID,0,VALID,17.9677,VALID,148,VALID,1.23086,
2012-01-03, 02:21:05,VALID,916.993,VALID,0,VALID,95.2241,VALID,0,VALID,18.0067,VALID,148,VALID,1.38906,
2012-01-03, 02:22:05,VALID,916.988,VALID,0,VALID,95.2088,VALID,0,VALID,18.0262,VALID,148,VALID,1.38555,
2012-01-03, 02:23:05,VALID,916.989,VALID,0,VALID,95.0335,VALID,0,VALID,18.0262,VALID,148,VALID,1.24297,
2012-01-03, 02:24:05,VALID,916.933,VALID,0,VALID,94.9725,VALID,0,VALID,18.0262,VALID,148,VALID,1.2707,
2012-01-03, 02:25:05,VALID,916.966,VALID,0,VALID,94.942,VALID,0,VALID,18.0262,VALID,148,VALID,1.41133,
2012-01-03, 02:26:05,VALID,916.962,VALID,0,VALID,94.8505,VALID,0,VALID,18.0262,VALID,148,VALID,1.4125,
2012-01-03, 02:27:05,VALID,916.958,VALID,0,VALID,94.7514,VALID,0,VALID,18.0067,VALID,148,VALID,1.21445,
2012-01-03, 02:28:05,VALID,916.937,VALID,0,VALID,94.6676,VALID,0,VALID,18.0067,VALID,148,VALID,1.47148,
2012-01-03, 02:29:05,VALID,916.935,VALID,0,VALID,94.7438,VALID,0,VALID,18.0067,VALID,148,VALID,1.38945,
2012-01-03, 02:30:05,VALID,916.934,VALID,0,VALID,94.7286,VALID,0,VALID,18.0262,VALID,152,VALID,1.44219,
2012-01-03, 02:31:05,VALID,916.963,VALID,0,VALID,94.6447,VALID,0,VALID,18.0262,VALID,149,VALID,1.24219,
2012-01-03, 02:32:05,VALID,916.956,VALID,0,VALID,94.5532,VALID,0,VALID,18.0067,VALID,149,VALID,1.3918,
2012-01-03, 02:33:05,VALID,916.952,VALID,0,VALID,94.5609,VALID,0.107441,VALID,18.0067,VALID,149,VALID,1.30352,
2012-01-03, 02:34:05,VALID,916.953,VALID,0,VALID,94.4999,VALID,0,VALID,18.0067,VALID,149,VALID,1.08633,
2012-01-03, 02:35:05,VALID,916.963,VALID,0,VALID,94.4694,VALID,0,VALID,18.0067,VALID,149,VALID,1.19922,
2012-01-03, 02:36:05,VALID,916.945,VALID,0,VALID,94.5609,VALID,0,VALID,17.9872,VALID,149,VALID,1.29062,
2012-01-03, 02:37:05,VALID,916.978,VALID,0,VALID,94.5304,VALID,0,VALID,17.9886,VALID,149,VALID,0.960547,
2012-01-03, 02:38:05,VALID,916.954,VALID,0,VALID,94.4084,VALID,0,VALID,17.9872,VALID,149,VALID,0.652734,
2012-01-03, 02:39:05,VALID,916.954,VALID,0,VALID,94.3703,VALID,0,VALID,17.9691,VALID,149,VALID,1.0375,
2012-01-03, 02:40:05,VALID,916.94,VALID,0,VALID,94.4694,VALID,0,VALID,17.9691,VALID,149,VALID,1.38398,
2012-01-03, 02:41:05,VALID,916.95,VALID,0,VALID,94.4541,VALID,0,VALID,17.9691,VALID,149,VALID,1.29258,
2012-01-03, 02:42:05,VALID,916.956,VALID,0,VALID,94.4236,VALID,0,VALID,17.9691,VALID,149,VALID,0.794141,
2012-01-03, 02:43:05,VALID,916.978,VALID,0,VALID,94.4465,VALID,0,VALID,17.9704,VALID,149,VALID,1.0332,
2012-01-03, 02:44:05,VALID,916.944,VALID,0,VALID,94.4541,VALID,0,VALID,17.9496,VALID,149,VALID,1.1375,
2012-01-03, 02:45:05,VALID,916.941,VALID,0,VALID,94.4846,VALID,0,VALID,17.9691,VALID,149,VALID,1.08633,
2012-01-03, 02:46:05,VALID,916.957,VALID,0,VALID,94.4999,VALID,0,VALID,17.9691,VALID,149,VALID,1.23008,
2012-01-03, 02:47:05,VALID,916.937,VALID,0,VALID,94.6218,VALID,0,VALID,18.0094,VALID,149,VALID,1.28945,
2012-01-03, 02:48:05,VALID,916.917,VALID,0,VALID,94.5761,VALID,0,VALID,18.008,VALID,149,VALID,1.14961,
2012-01-03, 02:49:05,VALID,916.931,VALID,0,VALID,94.5609,VALID,0,VALID,18.008,VALID,149,VALID,1.16289,
2012-01-03, 02:50:05,VALID,916.921,VALID,0,VALID,94.4313,VALID,0,VALID,18.008,VALID,149,VALID,1.08906,
2012-01-03, 02:51:05,VALID,916.9,VALID,0,VALID,94.3703,VALID,0,VALID,18.0484,VALID,149,VALID,1.14102,
2012-01-03, 02:52:05,VALID,916.896,VALID,0,VALID,94.4389,VALID,0,VALID,18.0665,VALID,149,VALID,1.41484,
2012-01-03, 02:53:05,VALID,916.934,VALID,0,VALID,94.3321,VALID,0,VALID,18.0665,VALID,149,VALID,1.0375,
2012-01-03, 02:54:05,VALID,916.939,VALID,0,VALID,94.1721,VALID,0,VALID,18.0665,VALID,149,VALID,0.991016,
2012-01-03, 02:55:05,VALID,916.937,VALID,0,VALID,94.0806,VALID,0,VALID,18.086,VALID,149,VALID,0.981641,
2012-01-03, 02:56:05,VALID,916.904,VALID,0,VALID,94.0958,VALID,0,VALID,18.086,VALID,149,VALID,1.58398,
2012-01-03, 02:57:05,VALID,916.937,VALID,0,VALID,93.9891,VALID,0,VALID,18.1055,VALID,149,VALID,1.16523,
2012-01-03, 02:58:05,VALID,916.927,VALID,0,VALID,93.9129,VALID,0,VALID,18.086,VALID,149,VALID,1.4043,
2012-01-03, 02:59:05,VALID,916.932,VALID,0,VALID,93.89,VALID,0,VALID,18.086,VALID,148,VALID,1.59648,
2012-01-03, 03:00:05,VALID,916.923,VALID,0,VALID,93.7756,VALID,0,VALID,18.086,VALID,129,VALID,1.43125,
2012-01-03, 03:01:05,VALID,916.91,VALID,0,VALID,93.6994,VALID,0,VALID,18.086,VALID,126,VALID,1.60352,
2012-01-03, 03:02:05,VALID,916.924,VALID,0,VALID,93.6308,VALID,0,VALID,18.047,VALID,126,VALID,1.51523,
2012-01-03, 03:03:05,VALID,916.901,VALID,0,VALID,93.5622,VALID,0,VALID,18.0275,VALID,126,VALID,1.42383,
2012-01-03, 03:04:05,VALID,916.897,VALID,0,VALID,93.6918,VALID,0,VALID,18.0275,VALID,126,VALID,1.51133,
2012-01-03, 03:05:05,VALID,916.905,VALID,0,VALID,93.6613,VALID,0,VALID,17.9886,VALID,126,VALID,1.34336,
2012-01-03, 03:06:05,VALID,916.897,VALID,0,VALID,93.829,VALID,0,VALID,17.9899,VALID,126,VALID,1.31406,
2012-01-03, 03:07:05,VALID,916.884,VALID,0,VALID,93.8747,VALID,0,VALID,17.9691,VALID,126,VALID,1.22383,
2012-01-03, 03:08:05,VALID,916.894,VALID,0,VALID,93.9815,VALID,0,VALID,17.9886,VALID,126,VALID,1.43945,
2012-01-03, 03:09:05,VALID,916.905,VALID,0,VALID,93.8595,VALID,0,VALID,18.0289,VALID,126,VALID,1.24922,
2012-01-03, 03:10:05,VALID,916.912,VALID,0,VALID,93.8214,VALID,0,VALID,18.0275,VALID,126,VALID,0.998047,
2012-01-03, 03:11:05,VALID,916.866,VALID,0,VALID,93.7604,VALID,0,VALID,18.0275,VALID,126,VALID,1.24375,
2012-01-03, 03:12:05,VALID,916.906,VALID,0,VALID,93.6613,VALID,0,VALID,18.0275,VALID,133,VALID,1.16289,
2012-01-03, 03:13:05,VALID,916.895,VALID,0,VALID,93.6155,VALID,0,VALID,18.0275,VALID,133,VALID,0.877344,
2012-01-03, 03:14:05,VALID,916.855,VALID,0,VALID,93.5012,VALID,0,VALID,17.9886,VALID,133,VALID,0.763672,
2012-01-03, 03:15:05,VALID,916.869,VALID,0,VALID,93.3182,VALID,0,VALID,17.9106,VALID,133,VALID,1.10039,
2012-01-03, 03:16:05,VALID,916.873,VALID,0,VALID,93.4707,VALID,0,VALID,17.8326,VALID,133,VALID,1.21055,
2012-01-03, 03:17:05,VALID,916.89,VALID,0,VALID,93.646,VALID,0,VALID,17.7547,VALID,133,VALID,1.36055,
2012-01-03, 03:18:05,VALID,916.843,VALID,0,VALID,93.8595,VALID,0,VALID,17.717,VALID,133,VALID,1.12852,
2012-01-03, 03:19:05,VALID,916.842,VALID,0,VALID,94.0043,VALID,0,VALID,17.6182,VALID,133,VALID,1.16484,
2012-01-03, 03:20:05,VALID,916.881,VALID,0,VALID,94.1949,VALID,0,VALID,17.5987,VALID,133,VALID,0.985156,
2012-01-03, 03:21:05,VALID,916.887,VALID,0,VALID,94.294,VALID,0,VALID,17.5403,VALID,133,VALID,1.21445,
2012-01-03, 03:22:05,VALID,916.875,VALID,0,VALID,94.4008,VALID,0,VALID,17.5194,VALID,133,VALID,1.14297,
2012-01-03, 03:23:05,VALID,916.86,VALID,0,VALID,94.538,VALID,0,VALID,17.5,VALID,133,VALID,1.09766,
2012-01-03, 03:24:05,VALID,916.862,VALID,0,VALID,94.5685,VALID,0,VALID,17.5,VALID,133,VALID,1.1375,
2012-01-03, 03:25:05,VALID,916.856,VALID,0,VALID,94.5837,VALID,0,VALID,17.5,VALID,133,VALID,1.40508,
2012-01-03, 03:26:05,VALID,916.872,VALID,0,VALID,94.5685,VALID,0,VALID,17.5,VALID,133,VALID,1.16523,
2012-01-03, 03:27:05,VALID,916.856,VALID,0,VALID,94.5151,VALID,0,VALID,17.5598,VALID,133,VALID,1.39727,
2012-01-03, 03:28:05,VALID,916.84,VALID,0,VALID,94.4465,VALID,0,VALID,17.5389,VALID,133,VALID,1.28906,
2012-01-03, 03:29:05,VALID,916.846,VALID,0,VALID,94.4313,VALID,0.107441,VALID,17.5766,VALID,133,VALID,1.45703,
2012-01-03, 03:30:05,VALID,916.845,VALID,0,VALID,94.2712,VALID,0.107441,VALID,17.6364,VALID,132,VALID,1.21992,
2012-01-03, 03:31:05,VALID,916.875,VALID,0,VALID,94.1187,VALID,0,VALID,17.6962,VALID,132,VALID,0.978516,
2012-01-03, 03:32:05,VALID,916.885,VALID,0,VALID,93.951,VALID,0,VALID,17.7157,VALID,132,VALID,1.08594,
2012-01-03, 03:33:05,VALID,916.846,VALID,0,VALID,93.9738,VALID,0,VALID,17.6948,VALID,132,VALID,1.16602,
2012-01-03, 03:34:05,VALID,916.874,VALID,0,VALID,94.1416,VALID,0,VALID,17.7338,VALID,132,VALID,1.54219,
2012-01-03, 03:35:05,VALID,916.838,VALID,0,VALID,94.0577,VALID,0,VALID,17.7728,VALID,132,VALID,1.45547,
2012-01-03, 03:36:04,VALID,916.82,VALID,0,VALID,93.8976,VALID,0,VALID,17.8131,VALID,132,VALID,1.29961,
2012-01-03, 03:37:04,VALID,916.816,VALID,0,VALID,93.7223,VALID,0,VALID,17.8326,VALID,131,VALID,1.47109,
2012-01-03, 03:38:04,VALID,916.817,VALID,0,VALID,93.5088,VALID,0,VALID,17.8118,VALID,131,VALID,1.64375,
2012-01-03, 03:39:04,VALID,916.784,VALID,0,VALID,93.2268,VALID,0,VALID,17.8118,VALID,131,VALID,1.49102,
2012-01-03, 03:40:04,VALID,916.772,VALID,0,VALID,92.9981,VALID,0,VALID,17.8326,VALID,131,VALID,1.60156,
2012-01-03, 03:41:04,VALID,916.741,VALID,0,VALID,92.9066,VALID,0,VALID,17.7923,VALID,131,VALID,1.45391,
2012-01-03, 03:42:04,VALID,916.788,VALID,0,VALID,92.8837,VALID,0,VALID,17.8118,VALID,131,VALID,1.68906,
2012-01-03, 03:43:04,VALID,916.753,VALID,0,VALID,92.8685,VALID,0,VALID,17.7923,VALID,131,VALID,1.58867,
2012-01-03, 03:44:04,VALID,916.773,VALID,0,VALID,92.7541,VALID,0,VALID,17.7533,VALID,131,VALID,1.38828,